Location: Pedholt
(56.0260°N, 10.2097°E)
Time: 13:19:33
(UTC+00:00)

Tiros 1 - Pass Details

Date: 05 August 2021
Orbit: 630 x 663 km, 48.4° (Epoch: 23 September)

Event Time Altitude Azimuth Distance (km) Brightness Sun altitude
Rises 18:05:32 0° 248° (WSW) 2,986 11.4 8.4°
Reaches altitude 10° 18:08:03 10° 239° (WSW) 2,070 10.4 8.0°
Maximum altitude 18:12:18 33° 176° (S) 1,106 8.3 7.5°
Drops below altitude 10° 18:16:32 10° 113° (ESE) 2,054 9.1 6.9°
Sets 18:19:01 0° 104° (ESE) 2,958 9.9 6.6°
